This is the latest recevied weather packets stored in our database for station/object PD2BVG. If no packets are shown the sender has not sent any weather packets the latest 1 day(s).
| Time | Temp. | Humidity | Pressure | Rain* | Wind** | Luminosity | Snow |
|---|---|---|---|---|---|---|---|
| 1777993289 | 13.89° C | 72% | 1010.7 hPa | 0 mm | 4.02 m/s, 316° | 371 W/m² | - |
| 1777993229 | 13.89° C | 72% | 1010.6 hPa | 0 mm | 4.02 m/s, 330° | 371 W/m² | - |
| 1777993169 | 13.89° C | 72% | 1010.7 hPa | 0 mm | 4.02 m/s, 13° | 350 W/m² | - |
| 1777993109 | 13.89° C | 72% | 1010.7 hPa | 0 mm | 4.02 m/s, 323° | 350 W/m² | - |
| 1777993049 | 13.89° C | 72% | 1010.7 hPa | 0 mm | 4.47 m/s, 345° | 350 W/m² | - |
| 1777992989 | 13.89° C | 72% | 1010.7 hPa | 0 mm | 4.47 m/s, 343° | 332 W/m² | - |
| 1777992928 | 13.89° C | 72% | 1010.7 hPa | 0 mm | 4.92 m/s, 337° | 324 W/m² | - |
| 1777992868 | 13.89° C | 72% | 1010.7 hPa | 0 mm | 4.92 m/s, 329° | 310 W/m² | - |
| 1777992807 | 13.89° C | 72% | 1010.7 hPa | 0 mm | 4.47 m/s, 337° | 324 W/m² | - |
| 1777992747 | 13.89° C | 72% | 1010.7 hPa | 0 mm | 4.02 m/s, 0° | 313 W/m² | - |
| 1777992683 | 13.89° C | 72% | 1010.6 hPa | 0 mm | 4.02 m/s, 329° | 269 W/m² | - |
| 1777992624 | 13.89° C | 72% | 1010.8 hPa | 0 mm | 4.02 m/s, 357° | 269 W/m² | - |
| 1777992563 | 13.89° C | 72% | 1010.7 hPa | 0 mm | 3.58 m/s, 331° | 259 W/m² | - |
| 1777992501 | 13.89° C | 72% | 1010.7 hPa | 0 mm | 4.02 m/s, 14° | 259 W/m² | - |
| 1777992442 | 13.89° C | 72% | 1010.8 hPa | 0 mm | 4.02 m/s, 327° | 259 W/m² | - |
| 1777992381 | 13.89° C | 71% | 1010.8 hPa | 0 mm | 3.58 m/s, 348° | 271 W/m² | - |
| 1777992321 | 13.89° C | 71% | 1010.9 hPa | 0 mm | 4.47 m/s, 327° | 278 W/m² | - |
| 1777992260 | 13.89° C | 71% | 1010.7 hPa | 0 mm | 4.92 m/s, 333° | 250 W/m² | - |
| 1777992200 | 13.89° C | 70% | 1010.9 hPa | 0 mm | 5.81 m/s, 348° | 252 W/m² | - |
| 1777992140 | 13.89° C | 70% | 1010.8 hPa | 0 mm | 4.92 m/s, 357° | 257 W/m² | - |
| 1777992080 | 13.89° C | 70% | 1010.7 hPa | 0 mm | 4.47 m/s, 338° | 232 W/m² | - |
| 1777992020 | 14.44° C | 70% | 1010.8 hPa | 0 mm | 4.92 m/s, 316° | 232 W/m² | - |
| 1777991959 | 14.44° C | 70% | 1010.8 hPa | 0 mm | 4.92 m/s, 327° | 229 W/m² | - |
| 1777991898 | 14.44° C | 70% | 1010.7 hPa | 0 mm | 4.02 m/s, 312° | 227 W/m² | - |
| 1777991837 | 14.44° C | 70% | 1010.8 hPa | 0 mm | 4.02 m/s, 338° | 232 W/m² | - |
* Rain latest hour (hover to see other rain measurements)
** Current wind speed in m/s (hover to see current wind gust speed)